METEOR-M2 4

Last updated on Sun Apr 12 2026 00:02:27 GMT+0000 (Coordinated Universal Time)

1 59051U 24039A 26101.49905647 .00000012 00000+0 25101-4 0 9997 2 59051 98.6956 61.6567 0007299 12.1513 347.9839 14.22422448109787
UTC large
Height (km)
Speed (km/s)
/
Latitude / Longitude
Inclination (degrees)
Orbital Period (minutes)
Azimuth
Elevation
Range (km)
Doppler Factor

Next 0 passes for location: London (51.5072 / 0.1276)

Sorry there are no passes over London.